Volver al catálogo

HULIANWANG DIGUI-102

ActivoComunicacionesLEO
NORAD 66418·PAYLOAD·🇨🇳 China

Lanzado Nov 10, 2025 desde Wenchang Space Launch Site

Loading…

Próximos Pases (próximas 24 horas)

TLE

ActualizadoSource: Space-Track

Época: Sep 13, 2026, 21:36 UTC

1 66418U 25258G   26256.90066544 -.00000086  00000-0  82308-4 0  9992
2 66418  50.0034 337.2374 0000109 104.2038 255.8846 13.29326190 41533

Sigue HULIANWANG DIGUI-102 en tiempo real con AllMySat

Download on the App Store